Regional Weather Roundup
Issued by NWS

Home | Current Version | Previous Version | Graphics & Text | Print | Product List | Glossary On
Versions: 1 2 3 4 5 6 7 8 9 10 11 12 13 14 15 16 17 18 19 20 21 22 23 24 25 26 27 28 29 30 31 32 33 34 35 36 37 38 39 40 41 42 43 44 45 46 47 48 49 50
000
ASUS45 KSLC 201910
RWRUT

UTAH REGIONAL WEATHER ROUNDUP
NATIONAL WEATHER SERVICE SALT LAKE CITY UT
100 PM MDT WED AUG 20 2014

UTZ001>011-023>025-202000-

NORTHERN UTAH

CITY           SKY/WX    TMP DP  RH WIND       PRES   REMARKS
HILL AFB       MOSUNNY   75  54  46 S10       30.03F
LOGAN          MOSUNNY   78  52  40 VRB6      29.99F
OGDEN          MOSUNNY   77  50  38 S13       30.01F
PROVO AIRPORT  MOSUNNY   70  55  60 CALM      30.07S
SALT LAKE CITY MOSUNNY   76  53  44 S14       30.00S
VERNAL         MOSUNNY   71  55  56 VRB7      30.04F
WENDOVER       SUNNY     81  46  30 S5        29.97F
HEBER CITY     MOSUNNY   70  52  52 CALM      30.08F
WEST JORDAN    SUNNY     73  61  64 SE17G23   30.03F

$$

UTZ012>022-026-027-202000-

SOUTHERN UTAH

CITY           SKY/WX    TMP DP  RH WIND       PRES   REMARKS
BRYCE CANYON   CLOUDY    62  50  64 SE6       30.25S
CEDAR CITY     MOSUNNY   76  52  43 SW13      30.12S
MILFORD        MOSUNNY   78  54  43 S22       30.07S
MOAB/CYNLANDS  MOSUNNY   77  53  43 S6        30.00F
PRICE          PTSUNNY   71  54  54 VRB6      30.09F
ST GEORGE      PTCLDY    81  55  41 CALM      30.02F
KANAB            N/A     75  54  46 S9G20     30.15F

$$

REGIONAL REPORTS     COLORADO/ARIZONA

CITY           SKY/WX    TMP DP  RH WIND       PRES   REMARKS
CRAIG, CO      LGT RAIN  67  55  65 SW5       30.09R
GRAND JUNCTION PTSUNNY   74  56  53 VRB5      30.04F
RIFLE          MOSUNNY   75  52  44 W10       30.05F
MONTROSE       MOSUNNY   77  52  41 VRB6      30.10F
CORTEZ         SUNNY     76  47  35 NW14      30.15S
PAGE, AZ       SUNNY     81  51  35 VRB3      30.06F
GRAND CANYON   MOSUNNY   70  52  52 SW12G17   30.24S
KINGMAN        SUNNY     83  50  31 SW13      30.05F
FLAGSTAFF      MOSUNNY   69  45  41 W13G21    30.26F

$$

REGIONAL REPORTS    NEVADA/IDAHO/WYOMING

CITY           SKY/WX    TMP DP  RH WIND       PRES   REMARKS
LAS VEGAS, NV  MOSUNNY   91  42  18 VRB3      29.90F
ELY            PTSUNNY   72  43  35 CALM      30.12S
ELKO           SUNNY     80  37  21 VRB6      29.99F
POCATELLO, ID  MOSUNNY   78  52  40 VRB6      29.95F
BURLEY         SUNNY     80  46  30 NW3       29.91F
EVANSTON, WY   MOSUNNY   69  47  45 SW15      30.13F
ROCK SPRINGS   CLOUDY    68  47  46 W12       30.09F

$$



USA.gov is the U.S. government's official web portal to all federal, state and local government web resources and services.